TimeCDT,TemperatureF,Dew PointF,Humidity,Sea Level PressureIn,VisibilityMPH,Wind Direction,Wind SpeedMPH,Gust SpeedMPH,PrecipitationIn,Events,Conditions,WindDirDegrees,DateUTC
12:15 AM,42.8,42.8,100,30.04,10.0,Calm,Calm,-,N/A,,Clear,0,2012-11-03 05:15:00
12:35 AM,41.0,39.2,93,30.04,10.0,Calm,Calm,-,N/A,,Clear,0,2012-11-03 05:35:00
12:55 AM,41.0,41.0,100,30.04,10.0,Calm,Calm,-,N/A,,Clear,0,2012-11-03 05:55:00
1:15 AM,41.0,41.0,100,30.04,10.0,Calm,Calm,-,N/A,,Clear,0,2012-11-03 06:15:00
1:35 AM,41.0,41.0,100,30.05,10.0,Calm,Calm,-,N/A,,Clear,0,2012-11-03 06:35:00
1:55 AM,41.0,39.2,93,30.05,10.0,Calm,Calm,-,N/A,,Clear,0,2012-11-03 06:55:00
2:15 AM,41.0,41.0,100,30.05,10.0,Calm,Calm,-,N/A,,Clear,0,2012-11-03 07:15:00
2:35 AM,39.2,39.2,100,30.04,10.0,Calm,Calm,-,N/A,,Clear,0,2012-11-03 07:35:00
2:55 AM,39.2,39.2,100,30.04,10.0,Calm,Calm,-,N/A,,Clear,0,2012-11-03 07:55:00
3:15 AM,39.2,39.2,100,30.03,10.0,Calm,Calm,-,N/A,,Clear,0,2012-11-03 08:15:00
3:35 AM,39.2,39.2,100,30.04,10.0,Calm,Calm,-,N/A,,Clear,0,2012-11-03 08:35:00
3:55 AM,39.2,39.2,100,30.04,10.0,Calm,Calm,-,N/A,,Clear,0,2012-11-03 08:55:00
4:15 AM,39.2,39.2,100,30.04,10.0,Calm,Calm,-,N/A,,Clear,0,2012-11-03 09:15:00
4:35 AM,41.0,41.0,100,30.05,10.0,Calm,Calm,-,N/A,,Clear,0,2012-11-03 09:35:00
4:55 AM,39.2,39.2,100,30.06,10.0,Calm,Calm,-,N/A,,Clear,0,2012-11-03 09:55:00
5:15 AM,39.2,39.2,100,30.06,10.0,Calm,Calm,-,N/A,,Clear,0,2012-11-03 10:15:00
5:35 AM,39.2,39.2,100,30.06,10.0,Calm,Calm,-,N/A,,Clear,0,2012-11-03 10:35:00
5:55 AM,39.2,39.2,100,30.07,10.0,Calm,Calm,-,N/A,,Clear,0,2012-11-03 10:55:00
6:15 AM,41.0,41.0,100,30.07,10.0,Calm,Calm,-,N/A,,Clear,0,2012-11-03 11:15:00
6:35 AM,41.0,39.2,93,30.08,10.0,Calm,Calm,-,N/A,,Clear,0,2012-11-03 11:35:00
6:55 AM,39.2,37.4,93,30.08,10.0,Calm,Calm,-,N/A,,Clear,0,2012-11-03 11:55:00
7:15 AM,39.2,39.2,100,30.08,10.0,Calm,Calm,-,N/A,,Clear,0,2012-11-03 12:15:00
7:35 AM,41.0,39.2,93,30.09,10.0,Calm,Calm,-,N/A,,Clear,0,2012-11-03 12:35:00
7:55 AM,41.0,41.0,100,30.09,10.0,Calm,Calm,-,N/A,,Clear,0,2012-11-03 12:55:00
8:15 AM,42.8,42.8,100,30.10,10.0,Calm,Calm,-,N/A,,Clear,0,2012-11-03 13:15:00
8:35 AM,44.6,42.8,93,30.10,10.0,Calm,Calm,-,N/A,,Clear,0,2012-11-03 13:35:00
8:55 AM,51.8,44.6,76,30.10,10.0,Calm,Calm,-,N/A,,Clear,0,2012-11-03 13:55:00
9:15 AM,55.4,44.6,67,30.10,5.0,SE,3.5,-,N/A,,Haze,140,2012-11-03 14:15:00
9:35 AM,59.0,42.8,55,30.09,10.0,SE,5.8,-,N/A,,Clear,140,2012-11-03 14:35:00
9:55 AM,60.8,42.8,52,30.09,10.0,SSE,5.8,-,N/A,,Clear,150,2012-11-03 14:55:00
10:15 AM,62.6,44.6,52,30.09,10.0,SE,4.6,-,N/A,,Clear,140,2012-11-03 15:15:00
10:35 AM,64.4,44.6,49,30.09,10.0,SSE,4.6,-,N/A,,Clear,150,2012-11-03 15:35:00
10:55 AM,66.2,46.4,49,30.09,10.0,SSE,4.6,-,N/A,,Clear,160,2012-11-03 15:55:00
11:15 AM,69.8,50.0,49,30.09,10.0,SSW,8.1,-,N/A,,Clear,210,2012-11-03 16:15:00
11:35 AM,71.6,51.8,50,30.08,10.0,South,6.9,-,N/A,,Clear,190,2012-11-03 16:35:00
11:55 AM,71.6,51.8,50,30.07,10.0,SSW,8.1,-,N/A,,Clear,200,2012-11-03 16:55:00
12:15 PM,73.4,53.6,50,30.06,10.0,WSW,8.1,-,N/A,,Clear,250,2012-11-03 17:15:00
12:35 PM,73.4,55.4,53,30.05,10.0,WSW,10.4,-,N/A,,Clear,250,2012-11-03 17:35:00
12:55 PM,73.4,55.4,53,30.04,10.0,WSW,8.1,-,N/A,,Clear,250,2012-11-03 17:55:00
1:15 PM,75.2,55.4,50,30.03,10.0,WSW,8.1,-,N/A,,Clear,240,2012-11-03 18:15:00
1:35 PM,77.0,55.4,47,30.02,10.0,WSW,11.5,18.4,N/A,,Clear,250,2012-11-03 18:35:00
1:55 PM,77.0,57.2,50,30.01,10.0,WSW,9.2,-,N/A,,Clear,250,2012-11-03 18:55:00
2:15 PM,77.0,55.4,47,30.00,10.0,West,11.5,-,N/A,,Clear,260,2012-11-03 19:15:00
2:35 PM,78.8,55.4,44,29.99,10.0,West,12.7,17.3,N/A,,Clear,260,2012-11-03 19:35:00
2:55 PM,78.8,55.4,44,29.99,10.0,West,9.2,-,N/A,,Clear,270,2012-11-03 19:55:00
3:15 PM,78.8,55.4,44,29.98,10.0,WSW,12.7,-,N/A,,Clear,240,2012-11-03 20:15:00
3:35 PM,78.8,53.6,42,29.98,10.0,WSW,9.2,17.3,N/A,,Clear,240,2012-11-03 20:35:00
3:55 PM,80.6,53.6,39,29.97,10.0,WSW,11.5,17.3,N/A,,Scattered Clouds,240,2012-11-03 20:55:00
4:15 PM,78.8,51.8,39,29.96,10.0,WSW,10.4,-,N/A,,Scattered Clouds,240,2012-11-03 21:15:00
4:35 PM,78.8,48.2,34,29.96,10.0,WSW,11.5,21.9,N/A,,Clear,250,2012-11-03 21:35:00
4:55 PM,78.8,50.0,36,29.96,10.0,SW,13.8,19.6,N/A,,Clear,230,2012-11-03 21:55:00
5:15 PM,77.0,50.0,39,29.95,10.0,SW,11.5,-,N/A,,Clear,230,2012-11-03 22:15:00
5:35 PM,77.0,48.2,36,29.94,10.0,SW,12.7,18.4,N/A,,Clear,220,2012-11-03 22:35:00
5:55 PM,73.4,50.0,44,29.94,10.0,SW,6.9,-,N/A,,Clear,220,2012-11-03 22:55:00
6:15 PM,71.6,50.0,46,29.95,10.0,SW,6.9,-,N/A,,Clear,230,2012-11-03 23:15:00
6:35 PM,71.6,50.0,46,29.96,10.0,SW,9.2,17.3,N/A,,Clear,230,2012-11-03 23:35:00
6:55 PM,69.8,50.0,49,29.96,10.0,SW,8.1,-,N/A,,Clear,220,2012-11-03 23:55:00
7:15 PM,69.8,50.0,49,29.97,10.0,SW,5.8,-,N/A,,Clear,230,2012-11-04 00:15:00
7:35 PM,69.8,50.0,49,29.96,10.0,SSW,8.1,-,N/A,,Clear,210,2012-11-04 00:35:00
7:55 PM,71.6,50.0,46,29.98,10.0,WSW,8.1,-,N/A,,Clear,240,2012-11-04 00:55:00
8:15 PM,69.8,50.0,49,29.98,10.0,SSW,3.5,-,N/A,,Clear,210,2012-11-04 01:15:00
8:35 PM,71.6,50.0,46,29.98,10.0,SW,10.4,-,N/A,,Clear,230,2012-11-04 01:35:00
8:55 PM,71.6,50.0,46,29.98,10.0,SW,10.4,-,N/A,,Scattered Clouds,230,2012-11-04 01:55:00
9:15 PM,69.8,51.8,53,29.99,10.0,West,10.4,-,N/A,Rain-Thunderstorm,Light Thunderstorms and Rain,260,2012-11-04 02:15:00
9:35 PM,60.8,55.4,82,30.02,7.0,NNW,11.5,-,0.03,Rain-Thunderstorm,Heavy Thunderstorms and Rain,340,2012-11-04 02:35:00
9:55 PM,60.8,55.4,82,30.03,7.0,SW,3.5,-,0.13,Rain,Rain,230,2012-11-04 02:55:00
10:15 PM,60.8,59.0,94,30.03,7.0,SSE,3.5,-,0.04,Rain,Rain,160,2012-11-04 03:15:00
10:35 PM,59.0,59.0,100,30.05,10.0,Calm,Calm,-,0.04,Rain,Light Rain,0,2012-11-04 03:35:00
10:55 PM,59.0,59.0,100,30.06,5.0,WSW,6.9,-,0.08,Rain,Rain,240,2012-11-04 03:55:00
11:15 PM,60.8,59.0,94,30.04,10.0,SSW,5.8,-,N/A,Rain,Light Rain,210,2012-11-04 04:15:00
11:35 PM,60.8,59.0,94,30.04,10.0,SW,4.6,-,0.01,Rain,Light Rain,230,2012-11-04 04:35:00
11:55 PM,60.8,59.0,94,30.04,10.0,Calm,Calm,-,0.01,,Light Drizzle,0,2012-11-04 04:55:00